Weather History for Altus, OK

Change the Weather History Date:

Monday, June 24, 2013

  Actual Average (KLTS) Record (KLTS)
Temperature  
Mean Temperature 86 °F -  
Max Temperature 99 °F 89 °F 105 °F (1998)
Min Temperature 75 °F 68 °F 64 °F (2004)
Cooling Degree Days 22    
Growing Degree Days 36 (Base 50)    
Moisture  
Dew Point 58 °F    
Average Humidity 39    
Maximum Humidity 57    
Minimum Humidity 24    
Precipitation  
Precipitation 0.00 in - - ()
Sea Level Pressure  
Sea Level Pressure 29.91 in    
Wind  
Wind Speed 18 mph (South)    
Max Wind Speed 28 mph    
Max Gust Speed 33 mph    
Visibility 10 miles    
Events      
Averages and records for this station are not official NWS values.
T = Trace of Precipitation, MM = Missing Value Source: NWS Daily Summary

Daily Weather History Graph

Daily Weather History Graph

Search for Another Location

Airport:

Trip Planner

Search our weather history database for the weather conditions in past years. The results will help you decide how hot, cold, wet, or windy it might be!

Date:

Astronomy

Jun. 24, 2013 Rise Set
Actual Time 6:25 AM CDT 8:54 PM CDT
Civil Twilight 5:55 AM CDT 9:23 PM CDT
Nautical Twilight 5:19 AM CDT 10:00 PM CDT
Astronomical Twilight 4:39 AM CDT 10:40 PM CDT
Moon 10:03 PM CDT (6/24) 7:50 AM CDT (6/24)
Length of Visible Light 15h 27m
Length of Day
14h 28m
Full, 98% of the Moon is Illuminated
Jun 24
Full
Jun 29
Last Quarter
Jul 8
New
Jul 15
First Quarter
Jul 22
Full

Hourly Weather History & Observations

Time (CDT) Temp. Heat Index Dew Point Humidity Pressure Visibility Wind Dir Wind Speed Gust Speed Precip Events Conditions
12:15 AM 86.0 °F - 52.0 °F 31% 29.91 in 10.0 mi SSE 17.3 mph 23.0 mph N/A   Clear
12:35 AM 85.5 °F - 52.7 °F 32% 29.91 in 10.0 mi SSE 18.4 mph - N/A   Clear
12:55 AM 84.7 °F 83.1 °F 53.2 °F 34% 29.90 in 10.0 mi SSE 18.4 mph 25.3 mph N/A   Clear
1:15 AM 84.2 °F 82.9 °F 54.5 °F 36% 29.90 in 10.0 mi SSE 18.4 mph 24.2 mph N/A   Clear
1:35 AM 83.7 °F 82.5 °F 54.9 °F 37% 29.91 in 10.0 mi SSE 18.4 mph - N/A   Clear
1:55 AM 82.8 °F 82.0 °F 55.4 °F 39% 29.90 in 10.0 mi SSE 17.3 mph - N/A   Clear
2:15 AM 82.4 °F 81.8 °F 55.9 °F 40% 29.91 in 10.0 mi South 18.4 mph - N/A   Clear
2:35 AM 82.2 °F 81.8 °F 56.7 °F 41% 29.91 in 10.0 mi SSE 17.3 mph 21.9 mph N/A   Clear
2:55 AM 82.0 °F 81.8 °F 57.2 °F 43% 29.91 in 10.0 mi South 16.1 mph - N/A   Clear
3:15 AM 81.9 °F 81.7 °F 57.6 °F 43% 29.91 in 10.0 mi South 17.3 mph 23.0 mph N/A   Clear
3:35 AM 81.5 °F 81.5 °F 57.9 °F 44% 29.91 in 10.0 mi South 17.3 mph 21.9 mph N/A   Clear
3:55 AM 81.3 °F 81.4 °F 58.3 °F 45% 29.92 in 10.0 mi South 17.3 mph - N/A   Clear
4:15 AM 80.6 °F 81.0 °F 58.5 °F 47% 29.92 in 10.0 mi SSE 15.0 mph - N/A   Scattered Clouds
4:35 AM 79.7 °F - 59.0 °F 49% 29.92 in 10.0 mi SSE 15.0 mph 20.7 mph N/A   Scattered Clouds
4:55 AM 78.8 °F - 59.0 °F 51% 29.93 in 10.0 mi SSE 12.7 mph - N/A   Clear
5:15 AM 78.4 °F - 59.2 °F 51% 29.93 in 10.0 mi SSE 11.5 mph - N/A   Clear
5:35 AM 77.0 °F - 59.2 °F 54% 29.93 in 10.0 mi SSE 11.5 mph - N/A   Clear
5:55 AM 76.8 °F - 59.2 °F 54% 29.94 in 10.0 mi SSE 11.5 mph - N/A   Scattered Clouds
6:15 AM 76.1 °F - 59.2 °F 56% 29.95 in 10.0 mi SSE 10.4 mph - N/A   Scattered Clouds
6:35 AM 76.1 °F - 59.2 °F 56% 29.95 in 10.0 mi SSE 11.5 mph - N/A   Clear
6:55 AM 76.1 °F - 59.4 °F 56% 29.96 in 10.0 mi SSE 11.5 mph - N/A   Clear
7:15 AM 75.6 °F - 59.5 °F 57% 29.96 in 10.0 mi SSE 10.4 mph - N/A   Scattered Clouds
7:35 AM 76.6 °F - 59.7 °F 56% 29.96 in 10.0 mi SSE 11.5 mph - N/A   Clear
7:55 AM 78.1 °F - 60.1 °F 54% 29.96 in 10.0 mi South 15.0 mph - N/A   Clear
8:15 AM 79.5 °F - 60.8 °F 53% 29.97 in 10.0 mi South 13.8 mph 21.9 mph N/A   Clear
8:35 AM 80.6 °F 81.6 °F 61.5 °F 52% 29.97 in 10.0 mi South 20.7 mph 25.3 mph N/A   Scattered Clouds
8:55 AM 82.2 °F 83.2 °F 62.6 °F 51% 29.97 in 10.0 mi South 21.9 mph 28.8 mph N/A   Scattered Clouds
9:15 AM 83.3 °F 84.3 °F 63.0 °F 50% 29.97 in 10.0 mi South 26.5 mph - N/A   Clear
9:35 AM 82.8 °F 83.8 °F 63.0 °F 51% 29.97 in 10.0 mi South 26.5 mph 29.9 mph N/A   Clear
9:55 AM 84.2 °F 85.0 °F 62.6 °F 48% 29.97 in 10.0 mi South 21.9 mph - N/A   Clear
10:15 AM 85.5 °F 86.1 °F 62.6 °F 46% 29.97 in 10.0 mi South 21.9 mph 32.2 mph N/A   Clear
10:35 AM 87.1 °F 87.8 °F 62.6 °F 44% 29.97 in 10.0 mi South 21.9 mph 27.6 mph N/A   Clear
10:55 AM 88.7 °F 89.1 °F 62.4 °F 41% 29.97 in 10.0 mi SSW 24.2 mph 29.9 mph N/A   Clear
11:15 AM 89.1 °F 89.3 °F 61.7 °F 40% 29.97 in 10.0 mi South 25.3 mph 31.1 mph N/A   Clear
11:35 AM 90.5 °F 90.4 °F 60.8 °F 37% 29.96 in 10.0 mi SSW 24.2 mph 29.9 mph N/A   Clear
11:55 AM 91.0 °F 90.2 °F 59.4 °F 34% 29.96 in 10.0 mi SSW 23.0 mph 31.1 mph N/A   Clear
12:15 PM 92.1 °F 91.1 °F 58.6 °F 32% 29.97 in 10.0 mi South 27.6 mph 33.4 mph N/A   Clear
12:35 PM 91.0 °F 90.0 °F 58.5 °F 33% 29.96 in 10.0 mi SSW 24.2 mph - N/A   Clear
12:55 PM 91.9 °F 90.8 °F 58.5 °F 32% 29.95 in 10.0 mi South 21.9 mph 27.6 mph N/A   Clear
1:15 PM 94.1 °F 93.5 °F 59.0 °F 31% 29.94 in 10.0 mi South 20.7 mph 29.9 mph N/A   Clear
1:35 PM 93.6 °F 92.7 °F 58.3 °F 31% 29.93 in 10.0 mi South 25.3 mph - N/A   Clear
1:55 PM 93.7 °F 92.6 °F 57.9 °F 30% 29.93 in 10.0 mi South 27.6 mph 32.2 mph N/A   Clear
2:15 PM 95.4 °F 94.6 °F 58.3 °F 29% 29.92 in 10.0 mi South 20.7 mph 31.1 mph N/A   Clear
2:35 PM 94.6 °F 93.5 °F 58.1 °F 29% 29.90 in 10.0 mi South 17.3 mph 29.9 mph N/A   Clear
2:55 PM 96.4 °F 95.0 °F 56.3 °F 26% 29.90 in 10.0 mi South 21.9 mph - N/A   Clear
3:15 PM 97.3 °F 96.2 °F 56.7 °F 26% 29.89 in 10.0 mi South 26.5 mph 29.9 mph N/A   Clear
3:35 PM 97.5 °F 95.7 °F 55.6 °F 24% 29.88 in 10.0 mi South 26.5 mph 29.9 mph N/A   Clear
3:55 PM 98.1 °F 96.4 °F 55.2 °F 24% 29.87 in 10.0 mi South 25.3 mph 32.2 mph N/A   Clear
4:15 PM 96.8 °F 95.1 °F 55.0 °F 25% 29.87 in 10.0 mi South 23.0 mph 28.8 mph N/A   Clear
4:35 PM 98.4 °F 97.8 °F 57.7 °F 26% 29.86 in 10.0 mi South 20.7 mph 29.9 mph N/A   Clear
4:55 PM 98.6 °F 97.2 °F 55.4 °F 24% 29.85 in 10.0 mi South 23.0 mph 32.2 mph N/A   Clear
5:15 PM 97.3 °F 95.5 °F 54.9 °F 24% 29.85 in 10.0 mi South 20.7 mph 28.8 mph N/A   Clear
5:35 PM 96.1 °F 94.8 °F 56.7 °F 27% 29.85 in 10.0 mi South 23.0 mph 28.8 mph N/A   Clear
5:55 PM 95.4 °F 94.6 °F 58.3 °F 29% 29.84 in 10.0 mi South 23.0 mph 27.6 mph N/A   Clear
6:15 PM 96.6 °F 96.4 °F 59.4 °F 29% 29.83 in 10.0 mi South 23.0 mph 31.1 mph N/A   Clear
6:35 PM 97.2 °F 96.0 °F 56.8 °F 26% 29.83 in 10.0 mi South 23.0 mph 28.8 mph N/A   Clear
6:55 PM 95.7 °F 95.1 °F 58.3 °F 29% 29.83 in 10.0 mi South 21.9 mph 29.9 mph N/A   Clear
7:15 PM 95.0 °F 94.0 °F 58.1 °F 29% 29.83 in 10.0 mi South 19.6 mph 29.9 mph N/A   Clear
7:35 PM 94.3 °F 93.4 °F 58.3 °F 30% 29.83 in 10.0 mi South 23.0 mph 33.4 mph N/A   Clear
7:55 PM 94.1 °F 93.1 °F 57.9 °F 30% 29.84 in 10.0 mi South 24.2 mph 27.6 mph N/A   Clear
8:15 PM 93.2 °F 91.9 °F 57.4 °F 30% 29.84 in 10.0 mi South 20.7 mph 26.5 mph N/A   Clear
8:35 PM 92.5 °F 91.3 °F 57.4 °F 31% 29.84 in 10.0 mi South 18.4 mph - N/A   Clear
8:55 PM 91.6 °F 89.8 °F 56.5 °F 30% 29.84 in 10.0 mi South 20.7 mph 25.3 mph N/A   Clear
9:15 PM 90.7 °F 89.2 °F 56.8 °F 32% 29.85 in 10.0 mi South 16.1 mph 19.6 mph N/A   Clear
9:35 PM 89.6 °F 88.1 °F 57.2 °F 33% 29.85 in 10.0 mi South 10.4 mph - N/A   Clear
9:55 PM 88.7 °F 87.5 °F 57.6 °F 35% 29.86 in 10.0 mi SSE 10.4 mph - N/A   Clear
10:15 PM 86.5 °F 85.6 °F 58.5 °F 38% 29.87 in 10.0 mi SSE 9.2 mph - N/A   Clear
10:35 PM 84.9 °F 84.4 °F 59.0 °F 41% 29.88 in 10.0 mi SE 9.2 mph - N/A   Clear
10:55 PM 84.2 °F 84.0 °F 59.2 °F 43% 29.88 in 10.0 mi SE 11.5 mph - N/A   Clear
11:15 PM 83.5 °F 83.4 °F 59.5 °F 44% 29.89 in 10.0 mi SE 11.5 mph - N/A   Clear
11:35 PM 83.3 °F 83.4 °F 59.9 °F 45% 29.89 in 10.0 mi SE 12.7 mph - N/A   Clear
11:55 PM 82.9 °F 83.2 °F 60.3 °F 46% 29.89 in 10.0 mi SSE 12.7 mph - N/A   Clear